Regional Weather Roundup
Issued by NWS Upton, NY

Current Version | Previous Version | Graphics & Text | Print | Product List | Glossary Off
Versions: 1 2 3 4 5 6 7 8 9 10 11 12 13 14 15 16 17 18 19 20 21 22 23 24 25 26 27 28 29 30 31 32 33 34 35 36 37 38 39 40 41 42 43 44 45 46 47 48 49 50

987
ASUS41 KOKX 150208
RWROKX

REGIONAL WEATHER ROUNDUP
NATIONAL WEATHER SERVICE NEW YORK NY
900 PM EST THU DEC 14 2017

NOTE: "FAIR" INDICATES FEW OR NO CLOUDS BELOW 12,000 FEET WITH NO
SIGNIFICANT WEATHER AND/OR OBSTRUCTIONS TO VISIBILITY.

NYZ071-072-176-178-NJZ106-104-150300-
NEW YORK CITY METRO AREA

CITY           SKY/WX    TMP DP  RH WIND       PRES   REMARKS
Central Park   PTCLDY    25   6  44 MISG      30.08R
Bronx Bot Gard   N/A     25   7  46 N6        30.09R WCI  18
Bronx Lehman C NOT AVBL
LaGuardia APRT PTCLDY    27   9  46 NW16      30.07R WCI  15
Queens College NOT AVBL
Kennedy INTL   MOCLDY    25   7  46 NW15      30.08R WCI  13
Breezy Point     N/A    N/A N/A N/A NW10G16     N/A
Brooklyn Coll  NOT AVBL
Staten Island  NOT AVBL
Newark/Liberty MOCLDY    25   4  40 NW10      30.08R WCI  15
Teterboro      PTCLDY    24   7  48 NW10G18   30.07R WCI  14
$$

NYZ177-179-078>081-150300-
LONG ISLAND NEW YORK

CITY           SKY/WX    TMP DP  RH WIND       PRES   REMARKS
Jones Beach      N/A    N/A N/A N/A NW14        N/A
Wantagh        NOT AVBL
Matinecock PT    N/A    N/A N/A N/A NW21        N/A
Farmingdale    PTCLDY    24   4  42 NW12G17   30.06R WCI  13
MacArthur/ISP  CLOUDY    24   6  46 NW16      30.04R WCI  11
Shirley        PTCLDY    24   8  50 NW10      30.04R WCI  14
Mt Sinai Harb    N/A    N/A N/A N/A NW12G18     N/A
Westhampton    PTCLDY    21   8  57 W8        30.03R WCI  11
East Hampton   FAIR      26   9  49 NW10G16   30.01R WCI  16
Southold       NOT AVBL
Montauk          N/A     28  11  48 NW13G21   30.02R WCI  17
$$

NYZ052-065-067-150300-
HUDSON VALLEY

CITY           SKY/WX    TMP DP  RH WIND       PRES   REMARKS
White Plains   PTCLDY    20   3  48 NW13      30.02R WCI   7
Larchmont Harb   N/A    N/A N/A N/A W18         N/A
Croton On Huds   N/A    N/A N/A N/A NW10        N/A
Somers         NOT AVBL
Brewster       NOT AVBL
Newburgh       CLEAR    N/A N/A N/A W6        30.04
Montgomery     CLEAR     14   1  56 CALM      30.03R
Otisville      NOT AVBL
Warwick        NOT AVBL
Suffern        NOT AVBL
Poughkeepsie   CLEAR     18   0  45 W6        30.04R WCI  10
Albany         MOCLDY    17   4  56 SW8       30.02R WCI   7
$$

NJZ001-105-106-008-010-013-015-019>022-104-150300-
NEW JERSEY

CITY           SKY/WX    TMP DP  RH WIND       PRES   REMARKS
Newark/Liberty MOCLDY    25   4  40 NW10      30.08R WCI  15
Teterboro      PTCLDY    24   7  48 NW10G18   30.07R WCI  14
Caldwell       PTCLDY    22   4  46 W6        30.08R WCI  14
Somerville     CLEAR     15  11  83 CALM      30.07R
Linden         FAIR      24   5  44 CALM      30.08R
Perth Amboy      N/A    N/A N/A N/A NW8         N/A
Sussex         CLEAR     15   6  67 CALM      30.03R
Andover        NOT AVBL
Trenton        PTCLDY    23  10  57 CALM      30.07R
Millville      CLOUDY    22  16  78 CALM      30.09R
Atlantic City  PTCLDY    24  16  71 NW3       30.08R
Wrightstown    PTCLDY    25  10  54 W3        30.05R
Toms River     PTCLDY    21  14  74 CALM      30.08R
Belmar         CLEAR     23  10  57 NW6       30.08R WCI  16
$$

PAZ047>061-062-071-150300-
EASTERN PENNSYLVANIA

CITY           SKY/WX    TMP DP  RH WIND       PRES   REMARKS
Philadelphia   MOCLDY    29   9  43 NW6       30.09R WCI  23
Allentown      PTCLDY    22   5  48 NW3       30.07R
Scranton       CLEAR     16   4  59 SW5       30.03R WCI   9
$$

CTZ002-004>006-009-010-012-RIZ004-006-007-MAZ004-011-015-150300-
SOUTHERN NEW ENGLAND
 IN CT

CITY           SKY/WX    TMP DP  RH WIND       PRES   REMARKS
Bradley INTL   PTCLDY    17   3  54 NW6       30.00R WCI   9
Hartford       CLEAR     19   3  49 NW7       30.03R WCI  10
Danbury        CLEAR     20   2  45 NW5       30.02R WCI  13
Wtrbury/Oxford CLEAR     15   3  59 VRB6      29.98R WCI   6
Norwalk Harbor   N/A    N/A N/A N/A W15         N/A
Bridgeport     CLEAR     23   6  48 W10       30.04R WCI  12
Meriden        CLEAR     13   6  74 NW5       30.02R WCI   5
New Haven      CLEAR     24   5  44 NW7       30.03R WCI  16
Chester        FAIR      18   1  49 NW6       29.99R WCI   9
Groton         CLEAR     19   4  51 NW5       30.02R WCI  12
Wilimantic     CLEAR     20   3  48 NW10G20   30.00R WCI   9

 IN RI

CITY           SKY/WX    TMP DP  RH WIND       PRES   REMARKS
Providence     CLEAR     19   4  51 NW17G26   29.98R WCI   4
Block Island   CLEAR     23   9  55 NW14G24   30.01R WCI  11
Westerly       CLEAR     20   3  48 VRB3      30.01R
 IN MA

CITY           SKY/WX    TMP DP  RH WIND       PRES   REMARKS
Boston         CLEAR     21   1  41 W15G26    29.95R WCI   8
Worcester      CLEAR     13   0  56 W13G22    29.89R WCI  -2
Westfield      CLEAR     17   4  56 W13G29    29.98R WCI   4
Provincetown   CLEAR     25  10  53 W23G29    29.92R WCI  10
Nantucket      CLEAR     25  11  55 W16G22    29.94R WCI  12
$$

ANZ330-335-338-340-345-350-353-355-150300-
COASTAL MARINE OBSERVATIONS


STATION/POSITION TIME  SKY/WX   TEMP    WIND        PRES    VSBY  WAVE
                                AIR SEA DIR/SP/G                  HT/PER
                 (UTC)          (F)     (DEG/KT/KT) (MB)    (MI)  (FT/S)
NY HARB ENTRANCE 0050            31 51  310/ 23/ 29 1016.1          4/ 4
20 S FIRE ISLAND 0050            32 51  310/ 19/ 25 1016.3          6/ 6
GREAT SOUTH BAY  0100            27 45  300/ 16/ 19   N/A
HUDSON CANYON    0050            37 56  310/ 19/ 25 1015.4          8/ 6
KINGS POINT      0130            26 42  360/ 15/ 19 1018.7
EXECUTION ROCKS  0130            27     320/ 16/ 21   N/A
WESTERN LI SOUND NOT AVBL
CENTRAL LI SOUND NOT AVBL
ROBBINS REEF     0130            26     310/ 17/ 22 1018.3
$$


>>>>>>>>>>>>>>>>>>>>>>>>>>>> KEY <<<<<<<<<<<<<<<<<<<<<<<<<<<
>                                                          <
>     SKY/WX - Sky Condition/Present Weather               <
>     TMP    - Temperature in Fahrenheit                   <
>     DP     - Dew Point in Fahrenheit                     <
>     RH     - Relative Humidity in Percent                <
>     WIND   - Direction (from) and Speed in MPH           <
>     PRES   - Mean Sea Level Pressure (inches of Hg)      <
>     WCI    - Wind Chill Index                            <
>     VSB    - VISIBILITY IN MILES                         <
>     HX     - HEAT INDEX                                  <
>     TC     - TEMPERATURE IN CELSIUS                      <
>     VRB    - VARIABLE WIND DIRECTION                     <
>                                                          <
>>>>>>>>>>>>>>>>>>>>>>>>>>>> KEY <<<<<<<<<<<<<<<<<<<<<<<<<<<




USA.gov is the U.S. government's official web portal to all federal, state and local government web resources and services.